{"data":{"norad_id":64864,"intl_designator":"2025-152Y","name":"STARLINK-34628","alt_names":[],"object_type":"PAYLOAD","status":"ACTIVE","operator":null,"country":"US","launch_date":"2025-07-19","launch_site_code":"AFWTR","launch_vehicle":null,"mission":null,"orbit_class":"UNKNOWN","rcs_meters":null,"size_class":null,"mass_kg":null,"dimensions":null,"purposes":["comms"],"wikipedia_slug":null,"has_3d_model":false,"image_url":null,"decayed_at":null,"tle_current":{"epoch":"2026-09-20T13:56:44.651040Z","epoch_age_seconds":117234,"freshness":"FRESH","line1":"1 64864U 25152Y   26263.58107235  .00013557  00000+0  42141-3 0  9998","line2":"2 64864  97.2833 114.1005 0002051  85.8392 274.3085 15.33450408 64830","mean_motion":15.33450408,"eccentricity":0.0002051,"inclination_deg":97.2833,"raan_deg":114.1005,"arg_perigee_deg":85.8392,"mean_anomaly_deg":274.3085,"bstar":0.00042141,"rev_number":6483,"period_min":93.90587347902,"perigee_km":464.12344861862,"apogee_km":466.93071962593,"semimajor_km":6843.6640841223,"source":"CELESTRAK","updated_at":"2026-09-21T09:00:35.453108Z"}}}